• En España
  • Lista de países
  • Para 7 días
  • Temperatura del agua
  • Mapa Satelital
  • El tiempo en el mapa
  • Informadores
  • user-avatar
    Iniciar sesión

    Tiempo cada hora Silves

    Hoy, 24 Noviembre, Viernes

    Tiempo Temperatura Precipitaciones Viento Presión Humedad
    00:00 +16°C° 0 mm 2 mps 757 mmHg 96%
    01:00 +16°C° 0 mm 2 mps 757 mmHg 95%
    02:00 +16°C° 0 mm 3 mps 757 mmHg 94%
    03:00 +14°C° 0 mm 3 mps 757 mmHg 93%
    04:00 +14°C° 0 mm 3 mps 757 mmHg 92%
    05:00 +14°C° 0 mm 3 mps 757 mmHg 92%
    06:00 +16°C° 0 mm 3 mps 757 mmHg 86%
    07:00 +17°C° 0 mm 3 mps 758 mmHg 81%
    08:00 +18°C° 0 mm 3 mps 758 mmHg 76%
    09:00 +20°C° 0 mm 4 mps 758 mmHg 63%
    10:00 +22°C° 0 mm 4 mps 758 mmHg 50%
    11:00 +25°C° 0 mm 5 mps 758 mmHg 38%
    12:00 +25°C° 0 mm 5 mps 757 mmHg 35%
    13:00 +25°C° 0 mm 4 mps 757 mmHg 33%
    14:00 +26°C° 0 mm 4 mps 757 mmHg 30%
    15:00 +22°C° 0 mm 4 mps 757 mmHg 39%
    16:00 +20°C° 0 mm 4 mps 757 mmHg 48%
    17:00 +18°C° 0 mm 3 mps 757 mmHg 57%
    18:00 +17°C° 0 mm 3 mps 757 mmHg 62%
    19:00 +16°C° 0 mm 3 mps 757 mmHg 67%
    20:00 +16°C° 0 mm 3 mps 758 mmHg 72%
    21:00 +16°C° 0 mm 2 mps 758 mmHg 74%
    22:00 +15°C° 0 mm 2 mps 758 mmHg 76%
    23:00 +15°C° 0 mm 2 mps 758 mmHg 77%

    Mañana, 25 Noviembre, Sábado

    Tiempo Temperatura Precipitaciones Viento Presión Humedad
    00:00 +15°C° 0 mm 2 mps 758 mmHg 78%
    01:00 +15°C° 0 mm 2 mps 757 mmHg 79%
    02:00 +15°C° 0 mm 2 mps 757 mmHg 80%
    03:00 +15°C° 0 mm 2 mps 757 mmHg 80%
    04:00 +15°C° 0 mm 2 mps 757 mmHg 80%
    05:00 +15°C° 0 mm 2 mps 758 mmHg 80%
    06:00 +16°C° 0 mm 2 mps 758 mmHg 76%
    07:00 +17°C° 0 mm 2 mps 758 mmHg 71%
    08:00 +18°C° 0 mm 2 mps 758 mmHg 67%
    09:00 +20°C° 0 mm 2 mps 759 mmHg 59%
    10:00 +23°C° 0 mm 2 mps 759 mmHg 52%
    11:00 +25°C° 0 mm 2 mps 759 mmHg 45%
    12:00 +25°C° 0 mm 2 mps 759 mmHg 44%
    13:00 +25°C° 0 mm 2 mps 759 mmHg 43%
    14:00 +25°C° 0 mm 2 mps 758 mmHg 41%
    15:00 +23°C° 0 mm 2 mps 759 mmHg 49%
    16:00 +21°C° 0 mm 1 mps 759 mmHg 56%
    17:00 +20°C° 0 mm 1 mps 759 mmHg 64%
    18:00 +19°C° 0 mm 1 mps 759 mmHg 66%
    19:00 +18°C° 0 mm 2 mps 760 mmHg 68%
    20:00 +17°C° 0 mm 2 mps 760 mmHg 70%
    21:00 +17°C° 0 mm 3 mps 760 mmHg 70%
    22:00 +17°C° 0 mm 3 mps 760 mmHg 69%
    23:00 +17°C° 0 mm 4 mps 760 mmHg 69%

    Pasado mañana, 26 Noviembre, Domingo

    Tiempo Temperatura Precipitaciones Viento Presión Humedad
    00:00 +17°C° 0 mm 4 mps 760 mmHg 67%
    01:00 +18°C° 0 mm 3 mps 760 mmHg 66%
    02:00 +18°C° 0 mm 3 mps 760 mmHg 64%
    03:00 +17°C° 0 mm 3 mps 760 mmHg 64%
    04:00 +17°C° 0 mm 3 mps 761 mmHg 63%
    05:00 +17°C° 0 mm 3 mps 761 mmHg 63%
    06:00 +17°C° 0 mm 3 mps 761 mmHg 62%
    07:00 +18°C° 0 mm 3 mps 762 mmHg 61%
    08:00 +18°C° 0 mm 3 mps 762 mmHg 61%
    09:00 +19°C° 0 mm 3 mps 762 mmHg 57%
    10:00 +20°C° 0 mm 4 mps 762 mmHg 54%
    11:00 +21°C° 0 mm 4 mps 762 mmHg 51%
    12:00 +22°C° 0 mm 4 mps 762 mmHg 47%
    13:00 +22°C° 0 mm 4 mps 762 mmHg 44%
    14:00 +23°C° 0 mm 5 mps 761 mmHg 40%
    15:00 +22°C° 0 mm 4 mps 761 mmHg 46%
    16:00 +20°C° 0 mm 4 mps 761 mmHg 52%
    17:00 +18°C° 0 mm 4 mps 762 mmHg 57%
    18:00 +18°C° 0 mm 3 mps 762 mmHg 58%
    19:00 +18°C° 0 mm 3 mps 762 mmHg 59%
    20:00 +18°C° 0 mm 3 mps 762 mmHg 59%
    21:00 +18°C° 0 mm 3 mps 762 mmHg 59%
    22:00 +18°C° 0 mm 3 mps 762 mmHg 58%
    23:00 +18°C° 0 mm 3 mps 762 mmHg 58%

    27 Noviembre, Lunes

    Tiempo Temperatura Precipitaciones Viento Presión Humedad
    00:00 +18°C° 0,1 mm 4 mps 762 mmHg 61%
    01:00 +17°C° 0,1 mm 4 mps 762 mmHg 64%
    02:00 +17°C° 0,1 mm 4 mps 761 mmHg 67%
    03:00 +17°C° 0,1 mm 4 mps 761 mmHg 69%
    04:00 +17°C° 0,1 mm 4 mps 761 mmHg 72%
    05:00 +17°C° 0,1 mm 4 mps 761 mmHg 74%
    06:00 +17°C° 1,5 mm 4 mps 761 mmHg 78%
    07:00 +16°C° 1,5 mm 5 mps 762 mmHg 83%
    08:00 +15°C° 1,5 mm 5 mps 762 mmHg 87%
    09:00 +16°C° 0,3 mm 5 mps 762 mmHg 84%
    10:00 +16°C° 0,3 mm 5 mps 762 mmHg 81%
    11:00 +17°C° 0,3 mm 6 mps 762 mmHg 78%
    12:00 +17°C° 0 mm 6 mps 761 mmHg 75%
    13:00 +17°C° 0 mm 5 mps 761 mmHg 73%
    14:00 +19°C° 0 mm 5 mps 760 mmHg 71%
    15:00 +17°C° 0,1 mm 5 mps 760 mmHg 75%
    16:00 +16°C° 0,1 mm 5 mps 760 mmHg 79%
    17:00 +15°C° 0,1 mm 5 mps 760 mmHg 84%
    18:00 +15°C° 0 mm 5 mps 760 mmHg 85%
    19:00 +15°C° 0 mm 5 mps 760 mmHg 87%
    20:00 +15°C° 0 mm 5 mps 760 mmHg 89%
    21:00 +15°C° 0 mm 5 mps 760 mmHg 89%
    22:00 +15°C° 0 mm 5 mps 759 mmHg 89%
    23:00 +15°C° 0 mm 5 mps 759 mmHg 90%

    28 Noviembre, Martes

    Tiempo Temperatura Precipitaciones Viento Presión Humedad
    00:00 +15°C° 0 mm 5 mps 759 mmHg 91%
    01:00 +15°C° 0 mm 5 mps 758 mmHg 92%
    02:00 +15°C° 0 mm 5 mps 758 mmHg 93%
    03:00 +15°C° 0,1 mm 5 mps 757 mmHg 94%
    04:00 +15°C° 0,1 mm 5 mps 757 mmHg 94%
    05:00 +15°C° 0,1 mm 5 mps 757 mmHg 95%
    06:00 +16°C° 0,1 mm 5 mps 757 mmHg 92%
    07:00 +16°C° 0,1 mm 5 mps 757 mmHg 90%
    08:00 +16°C° 0,1 mm 6 mps 756 mmHg 88%
    09:00 +19°C° 0,1 mm 6 mps 756 mmHg 83%
    10:00 +20°C° 0,1 mm 6 mps 756 mmHg 77%
    11:00 +21°C° 0,1 mm 6 mps 755 mmHg 71%
    12:00 +22°C° 0,3 mm 5 mps 754 mmHg 69%
    13:00 +22°C° 0,3 mm 5 mps 754 mmHg 68%
    14:00 +22°C° 0,3 mm 5 mps 753 mmHg 66%
    15:00 +21°C° 0,4 mm 5 mps 753 mmHg 74%
    16:00 +19°C° 0,4 mm 4 mps 752 mmHg 82%
    17:00 +18°C° 0,4 mm 4 mps 752 mmHg 90%
    18:00 +18°C° 0,9 mm 4 mps 752 mmHg 91%
    19:00 +17°C° 0,9 mm 4 mps 752 mmHg 93%
    20:00 +16°C° 0,9 mm 5 mps 752 mmHg 95%
    21:00 +16°C° 0,3 mm 5 mps 752 mmHg 96%
    22:00 +15°C° 0,3 mm 5 mps 751 mmHg 96%
    23:00 +15°C° 0,3 mm 5 mps 751 mmHg 97%

    29 Noviembre, Miércoles

    Tiempo Temperatura Precipitaciones Viento Presión Humedad
    00:00 +15°C° 0,2 mm 5 mps 751 mmHg 97%
    01:00 +15°C° 0,2 mm 5 mps 750 mmHg 97%
    02:00 +15°C° 0,2 mm 5 mps 750 mmHg 96%
    03:00 +15°C° 0,1 mm 5 mps 750 mmHg 97%
    04:00 +15°C° 0,1 mm 5 mps 750 mmHg 97%
    05:00 +15°C° 0,1 mm 5 mps 749 mmHg 97%
    06:00 +15°C° 0 mm 5 mps 750 mmHg 95%
    07:00 +16°C° 0 mm 5 mps 750 mmHg 94%
    08:00 +16°C° 0 mm 5 mps 750 mmHg 92%
    09:00 +16°C° 0 mm 5 mps 750 mmHg 88%
    10:00 +17°C° 0 mm 5 mps 751 mmHg 85%
    11:00 +17°C° 0 mm 5 mps 751 mmHg 81%
    12:00 +17°C° 0 mm 5 mps 750 mmHg 78%
    13:00 +18°C° 0 mm 4 mps 750 mmHg 75%
    14:00 +19°C° 0 mm 4 mps 750 mmHg 72%
    15:00 +18°C° 0 mm 4 mps 750 mmHg 74%
    16:00 +17°C° 0 mm 4 mps 751 mmHg 76%
    17:00 +14°C° 0 mm 4 mps 751 mmHg 78%
    18:00 +13°C° 0 mm 4 mps 752 mmHg 76%
    19:00 +12°C° 0 mm 4 mps 752 mmHg 74%
    20:00 +11°C° 0 mm 4 mps 753 mmHg 72%
    21:00 +11°C° 0 mm 4 mps 753 mmHg 76%
    22:00 +10°C° 0 mm 4 mps 753 mmHg 80%
    23:00 +10°C° 0 mm 4 mps 753 mmHg 84%
    Mostrar más